Tracking 31027 objects as of 19-Jul-2025
HD Live streaming from Space Station
objects crossing your sky now

SL-12 R/B(AUX MOTOR)

Track SL-12 R/B(AUX MOTOR) now!
10-day predictions


NORAD ID: 23403
Int'l Code: 1994-076H
Perigee: 671.4 km
Apogee: 18,660.8 km
Inclination: 65.3 °
Period: 336.9 minutes
Semi major axis: 16037 km
RCS: 0.7427 m2 (medium)
Launch date: November 20, 1994
Source: Commonwealth of Independent States (former USSR) (CIS)
Launch site: TYURATAM MISSILE AND SPACE COMPLEX (TTMTR)

Note: This is a ROCKET BODY
Your satellite tracking list
SL-14 DEB
Track 1 satellite(s)




NASA's NSSDC Master Catalog

Two Line Element Set (TLE):
1 23403U 94076H   25199.39685527  .00000077  00000-0  34731-3 0  9994
2 23403  65.2891  78.7528 5608666 128.9823  11.4248  4.27478976476429
Source of the keplerian elements: AFSPC